Weather in Lopazna

Russia / Bryansk Oblast     53°01′33″N   32°37′49″E
temp.,
°C
wind,
m/s
gust,
m/s
humid.,
%
clouds,
%
prec.,
mm/h
press.,
hPa
HPBL,
m
14 may, fri
fri1400:00+9se4108649 0.0 1013231
03:00+10se51184100 0.0 1013252
06:00+10se41085100 0.0 1012277
09:00+10e3884100 0.1 1012245
12:00+18ese69655 0.0 1010854
15:00+20se676987 1.0 10081207
18:00+16se2284100 3.8 100624
21:00+14s349024 3.8 100650
15 may, sat
sat1500:00+12ssw339355 0.0 100735
03:00+11s36955 0.0 1007103
06:00+11s399711 0.1 1007213
09:00+15ssw68803 0.1 1008592
12:00+17ssw797082 0.5 10081341
15:00+17ssw797171 1.3 10091336
18:00+17sw587864 0.9 1009927
21:00+13s369176 1.7 101093
16 may, sun
sun1600:00+11ssw49935 0.0 1011152
03:00+9s48955 0.0 1011151
06:00+9ssw389799 0.0 1013188
09:00+14sw458635 0.0 1013456
12:00+19ssw346738 0.1 10131248
15:00+20s445999 0.2 10131732
18:00+18ssw2374100 0.1 1012195
21:00+15ese2280100 0.1 101215
17 may, mon
mon1700:00+13se3386100 0.0 101233
03:00+12ese478820 0.0 1011101
06:00+12e41090100 0.0 1010179
09:00+17e4883100 0.0 1009285
12:00+20ene4675100 0.0 1007667
15:00+24se696094 0.1 10041720
18:00+18wsw4689100 3.6 1004157
21:00+15nw3797100 8.8 1006329
18 may, tue
tue1800:00+14wnw239992 6.4 100596
03:00+13wnw2399100 9.3 1005138
06:00+13wnw3499100 2.4 1005207
09:00+14wnw3493100 3.1 1005367
12:00+16wnw348698 2.2 1006670
15:00+19w347198 3.4 10061230
18:00+16wsw2488100 1.7 1006130
21:00+14ssw1187100 4.1 100611